Regional Weather Roundup
Issued by NWS Goodland, KS

Home | Current Version | Previous Version | Text Only | Print | Product List | Glossary On
Versions: 1 2 3 4 5 6 7 8 9 10 11 12 13 14 15 16 17 18 19 20 21 22 23 24 25 26 27 28 29 30 31 32 33 34 35 36 37 38 39 40 41 42 43 44 45 46 47 48 49 50
000
ASUS43 KGLD 291608
RWRGLD

GOODLAND FORECAST AREA HOURLY WEATHER ROUNDUP
NATIONAL WEATHER SERVICE GOODLAND KS
900 AM MST THU JAN 29 2015

...OFFICIAL OBSERVATIONS...

CITY           SKY/WX    TMP DP  RH WIND       PRES   REMARKS
GOODLAND KS    MOSUNNY   33  27  78 N17       30.50R
HILL CITY KS   SUNNY     38  25  59 NW25      30.49R
IMPERIAL NEB   SUNNY     33  24  69 NW13      30.50R
MCCOOK NEB     SUNNY     36  27  69 NW15      30.49R
AKRON CO       PTSUNNY   37  25  61 W13       30.48R
BURLINGTON CO  MOSUNNY   37  26  64 NW9       30.49R
LIMON CO       PTSUNNY   35  26  69 N12       30.50R
$$

...UNOFFICIAL OBSERVATIONS...

CITY           SKY/WX    TMP DP  RH WIND       PRES   REMARKS
COLBY KS       SUNNY     36  30  80 NW18G25   30.50R
GOVE KS          N/A     36  32  85 MISG        N/A
NORTON KS      SUNNY     37  25  60 NW18      30.47R
SHARON SPRINGS   N/A     35  29  78 N14         N/A
KIT CARSON CO    N/A     40  24  54 MISG        N/A
YUMA CO          N/A     39  24  55 NW14        N/A
$$


USA.gov is the U.S. government's official web portal to all federal, state and local government web resources and services.